KUIPER-00139 (65765 NORAD) Tracking and Keplerian Element Data

This shows tracking and keplerian element data for the satellite.

Feedback or suggestion? Click here.




ElementValue
Catalog65765
NameKUIPER-00139
Epoch Orbit1296
Epoch Day353.53415443
Epoch Year2025
RAAN40.8382
Inclination51.8859
Eccentricity0.0008531
Argument of Perigee44.4744
Mean Anonmoly315.6911
Mean Motion15.01732434
Decay Rate5.749E-05
L11 65765U 25217D 25353.53415443 .00005749 00000+0 45690-3 0 9994
L22 65765 51.8859 40.8382 0008531 44.4744 315.6911 15.01732434 12960



Live tracking and technical data element details for KUIPER-00139 (NORAD 65765). KUIPER-00139 can be tracked NOW for your location showing map with azimuth and elevation plus other details from your city location.







IsCatalogInMostPopularTable: catalog: 65765, numindb: 6
Update: records affected: 1



GetName: 65765 KUIPER-00139

Hit Count: updated at: Sat, 11 Apr 2026 21:10:58 GMT